AirNav   Bose ProFlight Series 2 Headset
 
 530 users online  

A61 Tuntutuliak Airport
Tuntutuliak, Alaska, USA

GOING TO TUNTUTULIAK?


FAA INFORMATION EFFECTIVE 26 MARCH 2020

Location

FAA Identifier: A61
Lat/Long: 60-21-03.9900N 162-39-16.6000W
60-21.066500N 162-39.276667W
60.3511083,-162.6546111
(estimated)
Elevation: 16 ft. / 5 m (estimated)
Variation: 12E (2015)
From city: 1 mile NE of TUNTUTULIAK, AK
Time zone: UTC -8 (UTC -9 during Standard Time)
Zip code: 99680

Airport Operations

Airport use: Open to the public
Activation date: 08/1974
Control tower: no
ARTCC: ANCHORAGE CENTER
FSS: KENAI FLIGHT SERVICE STATION [907-283-7211]
NOTAMs facility: ENA (NOTAM-D service available)
Attendance: UNATNDD
Wind indicator: lighted
Segmented circle: yes
Lights: ACTVT MIRL RY 02/20 - 122.7.
Beacon: white-green (lighted land airport)
Operates sunset to sunrise.

Airport Communications

CTAF: 122.7

Nearby radio navigation aids

VOR radial/distance  VOR name  Freq  Var
BETr209/35.7BETHEL VORTAC114.1014E

 
NDB name  Hdg/Dist  Freq  Var  ID
OSCARVILLE210/35.125111EOSE --- ... .

Airport Services

Airframe service: NONE
Powerplant service: NONE

Runway Information

Runway 2/20

Dimensions: 3005 x 75 ft. / 916 x 23 m
Surface: gravel, in good condition
Runway edge lights: medium intensity
Runway edge markings: RY 02/20 NSTD MKGS: RY ENDS MKD WITH CONES & REFLECTIVE MARKERS.
RUNWAY 2  RUNWAY 20
Latitude: 60-20.861333N60-21.271667N
Longitude: 162-39.552833W162-39.000333W
Elevation: 14.4 ft.15.1 ft.
Traffic pattern: leftleft
Markings: NSTDNSTD
Runway end identifier lights: yes
Obstructions: 6 ft. brush, 36 ft. from runway, 65 ft. right of centerline, 6:1 slope to clear3 ft. brush, 5 ft. from runway, 68 ft. right of centerline, 1:1 slope to clear

Airport Ownership and Management from official FAA records

Ownership: Publicly-owned
Owner: ALASKA DOT&PF CENTRAL REGION
PO BOX 196900
ANCHORAGE, AK 99519-6900
Phone (907) 269-0749
Manager: LAWERENCE DAVIS
PO BOX 505
BETHEL, AK 99559
Phone (907) 543-2498

Airport Operational Statistics

Aircraft operations: avg 83/month *
100% air taxi
* for 12-month period ending 31 December 2016

Additional Remarks

MULTIPLE UNLIT WIND GENERATORS NEAR RIVER UP TO 120'.
WINDSOCKS MAY BE UNRELIABLE
RY CONDITION NOT MONITORED; RECOMMEND VISUAL INSPECTION PRIOR TO USE.
WX CAMERA AVBL ON INTERNET AT HTTP://AVCAMS.FAA.GOV
BIRDS ON INVOF RY.

Instrument Procedures

There are no published instrument procedures at A61.

Some nearby airports with instrument procedures:

PAEE - Eek Airport (20 nm SE)
PANA - Napakiak Airport (29 nm NE)
PFKA - Kasigluk Airport (32 nm N)
PAPK - Napaskiak Airport (33 nm NE)
PABE - Bethel Airport (35 nm NE)
 
Loc | Ops | Rwys | IFR | FBO | Links
Com | Nav | Svcs | Stats | Notes

Crowley
 
Area around A61 (Tuntutuliak Airport)
 
Road maps at: MapQuest Bing Google
 
Aerial photo
No photo
 
Sectional chart

 
Airport distance calculator
Flying to Tuntutuliak Airport? Find the distance to fly.

From to A61

Sunrise and sunset
Times for 29-Mar-2020
 Local
(UTC-8)
 Zulu
(UTC)
Morning civil twilight07:3815:38
Sunrise08:2216:22
Sunset21:2905:29
Evening civil twilight22:1206:12

Current date and time
Zulu (UTC)  29-Mar-2020 12:39:07
Local (UTC-8)  29-Mar-2020 04:39:07
 
METAR
PANA 
29nm NE 
291056Z AUTO 36012KT 10SM CLR M16/M19 A3013 RMK AO2 SLP203 T11611194 PWINO FZRANO
PPIT 
34nm N 
291056Z AUTO 35019KT 10SM CLR M17/M20 A3016 RMK AO2 SLP217 T11721200 FZRANO TSNO
PABE 
36nm NE 
291153Z 34017KT 10SM CLR M17/M22 A3015 RMK AO2 SLP211 70003 T11671217 11133 21167 53018 $
PAKI 
48nm SW 
291156Z AUTO 35014KT 10SM CLR M17/M19 A3021 RMK AO2 SLP234 T11671189 11133 21167 53021 FZRANO
TAF
PABE 
36nm NE 
291128Z 2912/3012 35014KT P6SM FEW090 FM300300 03011KT P6SM SKC
NOTAMs
Click for the latest NOTAMs
NOTAMs are issued by the DoD/FAA and will open in a separate window not controlled by AirNav.

 

 
 

Would you like to see your business listed on this page?

 If your business provides an interesting product or service to pilots, flight crews, aircraft, or users of the Tuntutuliak Airport, you should consider listing it here.  To start the listing process, click on the button below
 
Add a business
 

Other Pages about Tuntutuliak Airport

Update a link
 
Copyright © AirNav, LLC. All rights reserved. Privacy Policy  Contact